Location: Newark
(38.9311°S, 68.8090°E)
Time: 01:12:50
(UTC+00:00)

LightSail 2 - Pass Details

Date: 29 January 2020
Orbit: 701 x 721 km, 24.0° (Epoch: 16 February)

Event Time Altitude Azimuth Distance (km) Brightness Sun altitude
Exits shadow 22:36:19 14° 17° (NNE) 1,941 7.1 -19.5°
Drops below altitude 10° 22:37:59 10° 35° (NE) 2,202 7.6 -19.3°
Sets 22:41:24 0° 58° (ENE) 3,119 8.6 -18.8°
